[[{"header":{"parameterUnit":"m.s-1","parameterCategory":1,"la1":30.2991,"la2":30.254,"lo1":-89.0895,"lo2":-89.0444,"dy":0.0017,"dx":0.0017,"nx":28,"ny":28,"refTime":"2025-04-13T09:00:00:Z","depth":0,"parameterNumber":2,"parameterNumberName":"U-component_of_WINDS"},"data":[0,0,0,0,0,0,0,0,0,0,0,0,0,0,0,0,0,0,0,0,0,0,0,0,0,0,0,0,0,0,0,0,0,0,0,0,0,0,0,0,0,0,0,0,0,0,0,0,0,0,0,0,0,0,0,0,0,0,5.7373,5.7375,0,5.7552,5.7555,5.7557,5.7509,5.7505,5.7502,5.7498,5.7679,5.7687,5.7695,0,0,0,0,0,0,0,0,0,0,0,0,0,5.6987,5.6994,5.7373,5.7375,5.7378,5.7552,5.7555,5.7557,5.7509,5.7505,5.7501,5.7497,5.7676,5.7686,5.7695,0,0,0,0,0,0,0,0,0,0,0,0,0,5.7159,5.6996,5.7373,5.7375,5.7377,5.7552,5.7555,5.7558,5.751,5.7505,5.75,5.7495,5.7673,5.7685,5.7697,5.7879,0,0,5.7734,5.7739,0,0,0,0,0,0,0,0,5.7149,5.7173,5.7372,5.7375,5.7378,5.7503,5.7484,5.7665,5.7512,5.746,5.7498,5.7492,5.7624,5.764,5.7685,5.7888,5.7896,5.7735,5.7743,5.7748,5.7751,0,0,0,0,0,0,0,5.7137,5.7165,5.7444,5.7375,5.7379,5.7366,5.7385,5.7519,5.757,5.7464,5.7461,5.7483,5.7625,5.7674,5.7689,5.7898,5.7735,5.7746,5.7753,5.7758,5.8259,5.8265,0,0,0,0,0,0,5.7124,5.7156,5.7438,5.7449,5.7248,5.7377,5.7398,5.7468,5.7568,5.7578,5.7487,5.748,5.7656,5.7675,5.7696,5.7916,5.7748,5.7759,5.7766,5.8253,5.826,5.8267,0,0,0,0,0,0,5.7116,5.7149,5.7431,5.7302,5.7337,5.739,5.7469,5.7474,5.7523,5.7586,5.7594,5.7528,5.7652,5.7678,5.7834,5.7921,5.7765,5.7776,5.8246,5.8255,5.8264,5.8358,0,0,0,0,0,0,5.7105,5.7147,5.7217,5.7304,5.7344,5.7568,5.7474,5.7482,5.7545,5.7537,5.7627,5.7636,5.765,5.7816,5.7846,5.7935,5.7785,5.8238,5.825,5.8261,5.8347,5.8369,5.8388,0,0,0,0,0,5.7091,5.7236,5.7221,5.7256,5.7433,5.7573,5.7596,5.761,5.7552,5.7623,5.7663,5.7633,5.7907,5.7833,5.7866,5.796,5.8233,5.8247,5.826,5.8338,5.8365,5.8387,0,0,0,0,0,0,5.7158,5.7247,5.7232,5.7409,5.7484,5.7565,5.7655,5.7637,5.7729,5.7718,5.773,5.775,5.791,5.795,5.7866,5.8142,5.8062,5.8082,5.811,5.8135,5.8155,5.8142,5.7795,0,0,0,0,0,5.7193,5.73,5.7372,5.7522,5.756,5.7601,5.7663,5.7667,5.7744,5.7775,5.7827,5.7902,5.8005,5.8072,5.8171,5.8353,5.8372,5.8434,5.8454,5.8471,5.8488,5.8588,5.8616,5.8311,5.8311,5.8311,0,0,5.7267,5.7329,5.7396,5.7537,5.7595,5.7705,5.7628,5.7747,5.7828,5.7793,5.7944,5.7984,5.8069,5.8239,5.8316,5.8278,5.8577,5.8488,5.85,5.8509,5.8604,5.8633,5.8659,5.832,5.8319,5.8317,0,0,5.7458,5.7516,5.7647,5.7708,5.7797,5.7824,5.7855,5.7939,5.7965,5.8117,5.8092,5.8188,5.8366,5.8427,5.8482,5.8697,5.8672,5.8728,5.8833,5.893,5.8954,5.8975,5.9052,5.9079,5.8746,5.8746,5.8746,0,5.7538,5.7704,5.7717,5.7839,5.7901,5.7875,5.8007,5.8065,5.8182,5.8225,5.818,5.8403,5.8458,5.8642,5.8694,5.8739,5.8775,5.8718,5.895,5.8971,5.8991,5.9064,5.9093,5.8752,5.8751,5.8751,5.875,0,5.7798,5.7913,5.8008,5.8123,5.8196,5.8322,5.8353,5.8426,5.8424,5.8455,5.8609,5.8675,5.8786,5.883,5.8828,5.9014,5.8987,5.8946,5.8866,5.9027,5.9095,5.9123,5.8761,5.8759,5.8757,5.8755,0,0,5.8036,5.8156,5.8191,5.8243,5.834,5.8429,5.8554,5.8663,5.8725,5.8806,5.8911,5.9062,5.9025,5.9087,5.9092,5.9177,5.9343,5.9126,5.9128,5.9163,5.9551,5.9581,5.9613,5.9328,5.9333,5.9337,5.9543,0,5.8235,5.8456,5.8472,5.8671,5.8777,5.8754,5.8863,5.8934,5.8966,5.906,5.9095,5.9202,5.9145,5.9182,5.9265,5.9305,5.9421,5.929,5.9424,5.9429,5.9403,5.9649,5.9681,5.9872,5.957,5.9575,5.9578,0,5.8497,5.8588,5.8798,5.8881,5.8926,5.9023,5.9125,5.9215,5.9295,5.9312,5.9382,5.9376,5.9503,5.9418,5.9594,5.9505,5.956,5.9588,5.9596,5.9609,5.9513,5.9668,5.9934,5.9962,5.9621,5.9617,5.9614,0,5.865,5.8824,5.8972,5.9017,5.9117,5.9186,5.9231,5.9305,5.937,5.9459,5.9501,5.9603,5.9659,5.9737,5.9758,5.9695,5.9933,5.985,5.995,5.995,6.0001,5.9998,6.028,6.0038,6.0038,6.0037,6.0036,0,5.8871,5.9,5.9042,5.9133,5.9278,5.9294,5.9436,5.9476,5.9542,5.964,5.9626,5.9718,5.9741,5.9837,5.9854,5.9996,6.0022,6.0038,6.0041,6.004,6.0038,6.0076,6.0063,6.0045,6.0043,6.0041,6.004,0,5.9065,5.9098,5.9259,5.934,5.9364,5.9466,5.9536,5.9623,5.9653,5.9777,5.9807,5.9855,5.9967,5.9996,6.013,6.0142,6.031,6.03,6.0283,6.0283,6.0381,6.0371,6.0697,6.0741,6.0471,6.0473,6.0475,0,5.9204,5.9303,5.9396,5.9461,5.9509,5.9614,5.968,5.9699,5.9769,5.9867,5.9943,6.0054,6.0143,6.0324,6.037,6.0472,6.0464,6.0572,6.048,6.0475,6.0466,6.0459,6.0469,6.0589,6.0592,6.0594,6.0596,0,5.9447,5.9458,5.9555,5.9658,5.9738,5.982,5.9898,5.9952,5.9982,6.0061,6.0176,6.0246,6.0383,6.0493,6.0597,6.0641,6.0624,6.0625,6.0653,6.0652,6.0638,6.0647,6.033,6.0617,6.0615,6.0613,6.0612,6.0611,5.9618,5.9705,5.9784,5.9892,5.9953,6.0026,6.0112,6.0154,6.025,6.0364,6.0369,6.0495,6.0571,6.0708,6.0759,6.0857,6.0824,6.0865,6.0876,6.0886,6.0894,6.0623,6.0875,6.0875,6.0874,6.0874,6.0873,0,5.986,5.9909,6.0009,6.0119,6.0204,6.0181,6.0266,6.0339,6.045,6.0523,6.0612,6.0744,6.0851,6.0905,6.1011,6.1078,6.1073,6.1105,6.11,6.1111,6.0917,6.0882,6.1108,6.1108,6.1108,6.1108,6.1107,6.1107,5.9996,6.0142,6.0163,6.0339,6.0387,6.051,6.0561,6.0628,6.0687,6.0836,6.0924,6.0959,6.1025,6.1135,6.1232,6.1245,6.1284,6.1321,6.133,6.1148,6.1124,6.1101,6.1068,6.1329,6.133,6.1515,6.1516,6.1518]},{"header":{"parameterUnit":"m.s-1","parameterCategory":1,"la1":30.2991,"la2":30.254,"lo1":-89.0895,"lo2":-89.0444,"dy":0.0017,"dx":0.0017,"nx":28,"ny":28,"refTime":"2025-04-13T09:00:00:Z","depth":0,"parameterNumber":3,"parameterNumberName":"V-component_of_WINDS"},"data":[0,0,0,0,0,0,0,0,0,0,0,0,0,0,0,0,0,0,0,0,0,0,0,0,0,0,0,0,0,0,0,0,0,0,0,0,0,0,0,0,0,0,0,0,0,0,0,0,0,0,0,0,0,0,0,0,0,0,-1.5304,-1.5304,0,-1.5315,-1.5315,-1.5315,-1.5311,-1.5311,-1.531,-1.531,-1.5321,-1.5322,-1.5322,0,0,0,0,0,0,0,0,0,0,0,0,0,-1.5279,-1.5279,-1.5304,-1.5304,-1.5304,-1.5315,-1.5315,-1.5315,-1.5311,-1.5311,-1.531,-1.531,-1.5321,-1.5322,-1.5322,0,0,0,0,0,0,0,0,0,0,0,0,0,-1.529,-1.5279,-1.5304,-1.5303,-1.5303,-1.5315,-1.5315,-1.5315,-1.5311,-1.5311,-1.531,-1.531,-1.5321,-1.5321,-1.5322,-1.5334,0,0,-1.5325,-1.5325,0,0,0,0,0,0,0,0,-1.5289,-1.5291,-1.5303,-1.5303,-1.5303,-1.5311,-1.531,-1.5321,-1.5311,-1.5308,-1.531,-1.531,-1.5318,-1.5319,-1.5322,-1.5335,-1.5335,-1.5325,-1.5325,-1.5325,-1.5326,0,0,0,0,0,0,0,-1.5288,-1.529,-1.5308,-1.5303,-1.5303,-1.5302,-1.5304,-1.5312,-1.5315,-1.5308,-1.5308,-1.5309,-1.5318,-1.5321,-1.5322,-1.5336,-1.5325,-1.5325,-1.5326,-1.5326,-1.5359,-1.5359,0,0,0,0,0,0,-1.5288,-1.5289,-1.5308,-1.5308,-1.5295,-1.5303,-1.5304,-1.5309,-1.5315,-1.5315,-1.531,-1.5309,-1.532,-1.5321,-1.5322,-1.5337,-1.5325,-1.5326,-1.5327,-1.5359,-1.5359,-1.536,0,0,0,0,0,0,-1.5287,-1.5289,-1.5307,-1.5299,-1.5301,-1.5304,-1.5309,-1.5309,-1.5312,-1.5316,-1.5316,-1.5312,-1.532,-1.5321,-1.5331,-1.5337,-1.5327,-1.5327,-1.5358,-1.5359,-1.5359,-1.5366,0,0,0,0,0,0,-1.5286,-1.5289,-1.5294,-1.5299,-1.5301,-1.5316,-1.5309,-1.531,-1.5314,-1.5313,-1.5319,-1.5319,-1.532,-1.533,-1.5332,-1.5338,-1.5328,-1.5358,-1.5358,-1.5359,-1.5365,-1.5367,-1.5368,0,0,0,0,0,-1.5285,-1.5295,-1.5294,-1.5296,-1.5307,-1.5316,-1.5318,-1.5318,-1.5314,-1.5319,-1.5321,-1.5319,-1.5336,-1.5331,-1.5334,-1.534,-1.5357,-1.5358,-1.5359,-1.5364,-1.5366,-1.5368,0,0,0,0,0,0,-1.529,-1.5296,-1.5295,-1.5306,-1.5311,-1.5316,-1.5321,-1.532,-1.5326,-1.5325,-1.5325,-1.5327,-1.5337,-1.5339,-1.5334,-1.5352,-1.5346,-1.5348,-1.535,-1.5351,-1.5353,-1.5352,-1.5329,0,0,0,0,0,-1.5293,-1.53,-1.5304,-1.5314,-1.5316,-1.5319,-1.5322,-1.5322,-1.5327,-1.5329,-1.5332,-1.5337,-1.5343,-1.5348,-1.5354,-1.5366,-1.5367,-1.5371,-1.5372,-1.5373,-1.5374,-1.5381,-1.5383,-1.5363,-1.5363,-1.5363,0,0,-1.5298,-1.5301,-1.5306,-1.5315,-1.5318,-1.5325,-1.532,-1.5328,-1.5333,-1.533,-1.534,-1.5342,-1.5348,-1.5359,-1.5364,-1.5361,-1.538,-1.5375,-1.5376,-1.5376,-1.5382,-1.5384,-1.5385,-1.5363,-1.5363,-1.5363,0,0,-1.531,-1.5314,-1.5322,-1.5326,-1.5332,-1.5333,-1.5335,-1.5341,-1.5342,-1.5352,-1.535,-1.5356,-1.5368,-1.5371,-1.5375,-1.5389,-1.5387,-1.5391,-1.5398,-1.5404,-1.5406,-1.5407,-1.5412,-1.5413,-1.5392,-1.5392,-1.5392,0,-1.5315,-1.5326,-1.5327,-1.5335,-1.5339,-1.5337,-1.5345,-1.5349,-1.5356,-1.5359,-1.5356,-1.537,-1.5374,-1.5385,-1.5389,-1.5392,-1.5394,-1.539,-1.5405,-1.5407,-1.5408,-1.5412,-1.5414,-1.5393,-1.5393,-1.5393,-1.5393,0,-1.5332,-1.534,-1.5346,-1.5353,-1.5358,-1.5366,-1.5368,-1.5372,-1.5372,-1.5374,-1.5384,-1.5388,-1.5395,-1.5398,-1.5398,-1.541,-1.5408,-1.5405,-1.54,-1.541,-1.5414,-1.5416,-1.5393,-1.5393,-1.5393,-1.5393,0,0,-1.5347,-1.5355,-1.5357,-1.5361,-1.5367,-1.5372,-1.5381,-1.5387,-1.5391,-1.5397,-1.5403,-1.5413,-1.5411,-1.5414,-1.5415,-1.542,-1.5431,-1.5417,-1.5417,-1.5419,-1.5444,-1.5445,-1.5447,-1.543,-1.543,-1.5431,-1.5443,0,-1.536,-1.5374,-1.5375,-1.5388,-1.5394,-1.5393,-1.54,-1.5405,-1.5407,-1.5413,-1.5415,-1.5422,-1.5418,-1.5421,-1.5426,-1.5428,-1.5436,-1.5428,-1.5436,-1.5436,-1.5434,-1.545,-1.5451,-1.5463,-1.5445,-1.5445,-1.5445,0,-1.5376,-1.5382,-1.5396,-1.5401,-1.5404,-1.541,-1.5416,-1.5422,-1.5427,-1.5428,-1.5433,-1.5433,-1.5441,-1.5436,-1.5447,-1.5441,-1.5445,-1.5446,-1.5447,-1.5447,-1.5441,-1.545,-1.5467,-1.5468,-1.5448,-1.5448,-1.5448,0,-1.5386,-1.5397,-1.5406,-1.5409,-1.5416,-1.542,-1.5423,-1.5428,-1.5432,-1.5438,-1.544,-1.5447,-1.545,-1.5455,-1.5457,-1.5453,-1.5468,-1.5463,-1.5469,-1.5469,-1.5471,-1.5471,-1.5488,-1.5474,-1.5474,-1.5474,-1.5474,0,-1.5399,-1.5407,-1.541,-1.5416,-1.5425,-1.5426,-1.5435,-1.5438,-1.5442,-1.5448,-1.5448,-1.5454,-1.5455,-1.5461,-1.5463,-1.5471,-1.5473,-1.5474,-1.5474,-1.5474,-1.5474,-1.5476,-1.5475,-1.5475,-1.5475,-1.5475,-1.5475,0,-1.5411,-1.5413,-1.5423,-1.5429,-1.543,-1.5437,-1.5441,-1.5447,-1.5449,-1.5456,-1.5458,-1.5462,-1.5469,-1.5471,-1.5479,-1.548,-1.549,-1.549,-1.5489,-1.5488,-1.5494,-1.5493,-1.5513,-1.5516,-1.55,-1.5501,-1.5501,0,-1.5419,-1.5425,-1.5431,-1.5435,-1.5438,-1.5445,-1.5449,-1.5451,-1.5455,-1.5462,-1.5466,-1.5473,-1.5479,-1.549,-1.5494,-1.55,-1.55,-1.5506,-1.55,-1.55,-1.5499,-1.5498,-1.5499,-1.5507,-1.5507,-1.5507,-1.5507,0,-1.5433,-1.5434,-1.544,-1.5447,-1.5452,-1.5457,-1.5462,-1.5466,-1.5468,-1.5473,-1.548,-1.5485,-1.5493,-1.55,-1.5507,-1.551,-1.5509,-1.5509,-1.5511,-1.551,-1.5509,-1.5509,-1.5491,-1.5508,-1.5508,-1.5508,-1.5508,-1.5508,-1.5443,-1.5449,-1.5454,-1.546,-1.5464,-1.5469,-1.5474,-1.5477,-1.5483,-1.5491,-1.5491,-1.5499,-1.5504,-1.5513,-1.5516,-1.5522,-1.552,-1.5523,-1.5523,-1.5524,-1.5524,-1.5508,-1.5524,-1.5524,-1.5524,-1.5524,-1.5523,0,-1.5457,-1.546,-1.5467,-1.5474,-1.5479,-1.5478,-1.5483,-1.5488,-1.5495,-1.55,-1.5505,-1.5513,-1.552,-1.5524,-1.5531,-1.5535,-1.5534,-1.5536,-1.5536,-1.5536,-1.5526,-1.5523,-1.5536,-1.5536,-1.5536,-1.5536,-1.5536,-1.5536,-1.5465,-1.5474,-1.5475,-1.5486,-1.5489,-1.5497,-1.55,-1.5504,-1.5508,-1.5517,-1.5523,-1.5525,-1.553,-1.5537,-1.5543,-1.5544,-1.5546,-1.5548,-1.5549,-1.5539,-1.5537,-1.5536,-1.5534,-1.5549,-1.5549,-1.5559,-1.5559,-1.5559]}]]